www.pogodaiklimat.ru

Погода и климат >> Архив погоды >> Россия >> Ямало-Ненецкий АО >> Белоярск


ПОГОДА в Белоярске

  • Прогноз погоды в Белоярске
  • Монитор погоды в Белоярске

АРХИВ ПОГОДЫ в Белоярске

Время (UTC), дата Ветер
(напр.,м/с)
 
Видим.   Явления Облачность Т
(С)
Тd
(С)
f
(%)
Тe
(С)
Тes
(С)
Комфортность P
(гПа)
Po
(гПа)
Тmin
(С)
Tmax
(С)
R
(мм)
R24
(мм)
S
(см)
03 14.05 СВ 7
{11}
н/о н/о -6.3 -9.2 80 -15 -15 1038.0 1033.4 -7.5
06 14.05 В 7
{10}
н/о н/о -4.5 -7.9 77 -13 -13 1037.8 1033.2
09 14.05 ЮВ 3 н/о н/о -3.9 -7.5 76 -9 -9 1037.8 1033.2
12 14.05 В 4 н/о н/о -3.7 -7.4 75 -10 -10 1037.9 1033.3
15 14.05 Ю 3 н/о н/о -4.8 -8.0 78 -10 -10 1037.6 1033.0 -3.3
18 14.05 В 2 н/о н/о -7.2 -8.7 89 -12 -12 1037.1 1032.5
21 14.05 СЗ 1 н/о н/о -9.6 -9.6 100 -12 -12 1036.7 1032.0
00 15.05 штиль 0 н/о н/о -7.5 -7.5 100 -8 -8 1036.3 1031.6
03 15.05 З 2 н/о н/о -4.8 -6.3 89 -9 -9 1035.3 1030.7 -9.6
06 15.05 ЮЗ 3 н/о н/о -1.0 -7.3 62 -5 -5 1033.7 1029.2
09 15.05 ЮЗ 3 н/о н/о +1.8 -8.1 48 -2 -2 1032.5 1028.1
12 15.05 ЮЗ 3 н/о н/о +3.1 -11.3 34 0 0 1031.0 1026.5
15 15.05 З 3 н/о н/о +2.5 -5.1 57 -1 -1 1029.5 1025.0 +3.3
18 15.05 З 3 н/о н/о -2.1 -4.5 84 -7 -7 1028.6 1024.1
21 15.05 Ю 3 н/о н/о -2.6 -5.7 79 -8 -8 1027.3 1022.7
00 16.05 Ю 4 н/о н/о -1.5 -5.5 74 -7 -7 1025.3 1020.8
03 16.05 Ю 3 н/о н/о +2.6 -3.6 64 -1 -1 1023.6 1019.2 -2.8
06 16.05 ЮЗ 4 н/о н/о +6.5 -14.4 21 +4 +4 1021.7 1017.3
09 16.05 Ю 5 н/о н/о +7.7 -32.1 4 +5 +5 1019.9 1015.5
12 16.05 ЮЗ 3 н/о н/о +6.2 -2.0 56 +4 +4 1018.2 1013.8
15 16.05 Ю 2 н/о н/о +5.1 -1.9 61 +3 +3 1016.9 1012.5 +7.9
18 16.05 СЗ 1 н/о н/о +4.0 -2.1 64 +3 +3 1015.4 1011.0
21 16.05 Ю 2 н/о н/о +2.5 -1.8 73 -0 -0 1013.2 1008.9
00 17.05 В 4 н/о н/о +0.9 +0.2 95 -5 -5 1011.6 1007.2
03 17.05 В 3 н/о н/о +2.6 -0.4 81 -1 -1 1010.7 1006.4 +0.5
06 17.05 ЮЗ 2 н/о н/о +4.4 +0.3 75 +2 +2 1010.0 1005.6
09 17.05 ЮЗ 4 н/о н/о +6.6 -8.9 32 +4 +4 1009.1 1004.8
12 17.05 ЮЗ 4 н/о н/о +5.1 -0.4 68 +1 +1 1008.7 1004.4
15 17.05 Ю 4 н/о н/о +3.6 -1.1 71 -1 -1 1008.1 1003.7 +7.0
18 17.05 Ю 5 н/о н/о +2.4 -1.2 77 -3 -3 1007.4 1003.0
21 17.05 Ю 4 н/о н/о +1.5 -1.8 79 -3 -3 1005.6 1001.3
00 18.05 ЮВ 7
{11}
н/о н/о +1.2 -2.5 76 -5 -5 1003.7 999.3
03 18.05 В 6
{12}
н/о н/о +1.5 -2.1 77 -5 -5 1002.7 998.3 +1.2
06 18.05 В 9
{15}
н/о н/о +1.9 -1.3 79 -5 -5 1002.3 997.9
09 18.05 В 8
{15}
н/о н/о +2.5 +0.2 85 -4 -4 1003.8 999.5
12 18.05 В 4
{12}
н/о н/о +2.8 -0.7 78 -2 -2 1005.7 1001.4
15 18.05 В 5 н/о н/о +3.5 -1.3 71 -1 -1 1006.6 1002.3 +3.8
18 18.05 В 4 н/о н/о +0.9 -1.8 82 -4 -4 1007.3 1002.9
21 18.05 В 5 н/о н/о -0.5 -1.7 92 -7 -7 1007.5 1003.1
00 19.05 В 6 н/о н/о 0.0 -3.0 80 -7 -7 1007.6 1003.2
03 19.05 В 10
{14}
н/о н/о +1.4 -2.2 77 -6 -6 1007.1 1002.7 -0.7
06 19.05 В 8
{16}
н/о н/о +2.8 -2.8 67 -3 -3 1006.4 1002.1
09 19.05 В 10
{17}
н/о н/о +3.3 -2.7 65 -3 -3 1006.5 1002.1
12 19.05 В 11
{18}
н/о н/о +2.7 -2.9 67 -5 -5 1006.8 1002.5
15 19.05 СВ 10
{18}
н/о н/о +0.3 -1.9 85 -8 -8 1007.1 1002.7 +4.0
18 19.05 СВ 10
{15}
н/о н/о -1.5 -2.0 96 -10 -10 1006.6 1002.2
21 19.05 СВ 11
{17}
н/о н/о -2.4 -2.5 99 -12 -12 1005.7 1001.3
00 20.05 СВ 12
{17}
н/о н/о -3.6 -4.1 96 -14 -14 1005.1 1000.6

 

Местоположение метеостанции Белоярск (Ямало-Ненецкий АО, Россия): широта 66.87 долгота 68.13 высота над уровнем моря 35 м.

В архиве по умолчанию представлена погода в Белоярске за последнюю неделю. Архивные данные за месяц целиком и за предыдущие месяцы, начиная с января 2011 года, Вы можете получить, выбрав интересующий диапазон дат из раскрывающегося списка и нажав кнопку "Ввод!".


*Определитесь, кто Вы:
робот инопланетянин человек

Внимание! Время в таблицах - всемирное. Для получения местного времени необходимо прибавить поправку, которая равна 5 ч.

Смотрите также архив погоды в соседних городах и на ближайших метеорологических станциях:

Погода в Салехарде (Ямало-Ненецкий АО, Россия) (75 км)
Погода в Полуе (Ямало-Ненецкий АО, Россия) (97 км)
Погода в Харпе (Ямало-Ненецкий АО, Россия) (103 км)
Погода в Питляре (Ямало-Ненецкий АО, Россия) (152 км)
Погода в Елецкой (Коми, Россия) (178 км)
Погода в Воркуте (Коми, Россия) (192 км)
Погода в Ныде (Ямало-Ненецкий АО, Россия) (212 км)
Погода в Новом Порте (Ямало-Ненецкий АО, Россия) (223 км)
Погода в Мужах (Ямало-Ненецкий АО, Россия) (226 км)
Погода в Надыме (Ямало-Ненецкий АО, Россия) (257 км)

Пояснения к столбцам:

Ветер - указаны скорость ветра в м/с - средняя за 10 мин, порывы в срок и между сроками (в фигурных скобках) и направление, откуда дует ветер: С - северный, СВ - северо-восточный, В - восточный, ЮВ - юго-восточный, Ю - южный, ЮЗ - юго-западный, З - западный, СЗ - северо-западный.
Видимость - горизонтальная дальность видимости в метрах или километрах. При видимости от 1 до 10 км при отсутствии осадков обычно наблюдается дымка, при ухудшении видимости до 1 км и менее - туман. В сухую погоду видимость может ухудшаться дымом, пылью или мглою.
Явления - указаны атмосферные явления, наблюдавшиеся в срок или в последний час перед сроком; фигурными скобками обозначены явления, наблюдавшиеся между сроками (за 1-3 часа до срока); квадратными скобками обозначены град или гололедные отложения с указанием их диаметра в мм.
Облачность - указаны через наклонную черту общая и нижняя облачность в баллах и высота нижней границы облаков в метрах; квадратными скобками обозначены формы облаков: Ci - перистые, Cs - перисто-слоистые, Cc - перисто-кучевые, Ac - высококучевые, As - высокослоистые, Sc - слоисто-кучевые, Ns - слоисто-дождевые, Cu - кучевые, Cb - кучево-дождевые. Подробнее классификацию облаков см. в Атласе облаков (PDF).
T - Температура воздуха - температура, измеренная на высоте 2 м над землей.
Td - Температура точки росы - температура, при понижении до которой содержащийся в воздухе водяной пар достигнет насыщения.
f - Относительная влажность воздуха - влажноcть воздуха, измеренная на высоте 2 м над землей.
Te - Эффективная температура - температура, которую ощущает одетый по сезону человек в тени. Характеристика душности погоды. При расчете учитывается влияние влажности воздуха и скорости ветра на теплоощущения человека.
Tes - Эффективная температура на солнце - температура, которую ощущает человек, с поправкой на солнечный нагрев. Характеристика знойности погоды. Зависит от высоты солнца над горизонтом, облачности и скорости ветра. Ночью, в пасмурную погоду, а также при ветре 12 м/с и более поправка равна нулю.
P - Атмосферное давление - приведенное к уровню моря атмосферное давление.
Po - Атмосферное давление - измеренное на уровне метеостанции атмосферное давление.
Tmin - Минимальная температура - минимум температуры воздуха на высоте 2 м над землей.
Tmax - Максимальная температура - максимум температуры воздуха на высоте 2 м над землей.
R - Количество осадков - Количество выпавших осадков за период времени, мм. При наведении курсора мыши на число - период времени, за который выпало указанное количество осадков.
R24 - Количество осадков - Количество выпавших осадков за 24 часа, мм.
S - Снежный покров - Высота снежного покрова, см. При наведении курсора мыши на число - состояние снежного покрова и степень покрытия местности в баллах.